Weather History for Wroclaw, Poland

Change the Weather History Date:

Friday, February 8, 2013

  Actual Average Record
Temperature  
Mean Temperature 29 °F -  
Max Temperature 34 °F 40 °F 55 °F (2001)
Min Temperature 24 °F 26 °F 8 °F (2012)
Degree Days  
Heating Degree Days 36    
Moisture  
Dew Point 25 °F    
Average Humidity 80    
Maximum Humidity 97    
Minimum Humidity 58    
Precipitation  
Precipitation 0.00 in 0.03 in - ()
Sea Level Pressure  
Sea Level Pressure 29.84 in    
Wind  
Wind Speed 5 mph ()    
Max Wind Speed 12 mph    
Max Gust Speed -    
Visibility 7.0 miles    
Events Snow    
Averages and records for this station are not official NWS values.
T = Trace of Precipitation, MM = Missing Value Source: Averaged Metar Reports

Daily Weather History Graph

Daily Weather History Graph

Search for Another Location

Airport:

Trip Planner

Search our weather history database for the weather conditions in past years. The results will help you decide how hot, cold, wet, or windy it might be!

Date:

Astronomy

Feb. 08, 2013 Rise Set
Actual Time 7:18 AM CET 4:56 PM CET
Civil Twilight 6:43 AM CET 5:31 PM CET
Nautical Twilight 6:03 AM CET 6:10 PM CET
Astronomical Twilight 5:25 AM CET 6:48 PM CET
Moon 5:40 AM CET (2/8) 3:03 PM CET (2/8)
Length of Visible Light 10h 47m
Length of Day
9h 38m
Waning Crescent, 5% of the Moon is Illuminated
Feb 8
Waning Crescent
Feb 10
New
Feb 17
First Quarter
Feb 25
Full
Mar 4
Last Quarter

Hourly Weather History & Observations

Time (CET) Temp. Windchill Dew Point Humidity Pressure Visibility Wind Dir Wind Speed Gust Speed Precip Events Conditions
12:00 AM 30.2 °F - 26.6 °F 86% 29.77 in 5.0 mi West 2.3 mph - N/A   Partly Cloudy
12:30 AM 30.2 °F - 28.4 °F 93% 29.77 in 5.0 mi West 2.3 mph - N/A   Scattered Clouds
1:00 AM 28 °F - 27 °F 94% 29.81 in 5 mi WSW 4.5 mph - -   Mist
1:00 AM 30.2 °F 26.7 °F 26.6 °F 86% 29.77 in 5.0 mi WSW 3.5 mph - N/A   Scattered Clouds
1:30 AM 30.2 °F 25.4 °F 28.4 °F 93% 29.77 in 5.0 mi WSW 4.6 mph - N/A   Mostly Cloudy
2:00 AM 32.0 °F 24.2 °F 26.6 °F 80% 29.77 in 6.2 mi West 9.2 mph - N/A   Mostly Cloudy
2:30 AM 32.0 °F 24.2 °F 28.4 °F 87% 29.77 in 6.2 mi West 9.2 mph - N/A   Mostly Cloudy
3:00 AM 32.0 °F 24.8 °F 28.4 °F 87% 29.77 in 6.2 mi WNW 8.1 mph - N/A Snow Light Snow
3:30 AM 32.0 °F 25.6 °F 28.4 °F 87% 29.77 in 6.2 mi West 6.9 mph - N/A Snow Light Snow Showers
4:00 AM 30 °F - 29 °F 92% 29.82 in 9 mi WNW 4.5 mph - - Snow Light Snow
4:00 AM 30.2 °F 26.7 °F 28.4 °F 93% 29.80 in 6.2 mi WNW 3.5 mph - N/A Snow Light Snow
4:30 AM 30.2 °F 25.4 °F 28.4 °F 93% 29.80 in 6.2 mi West 4.6 mph - N/A   Scattered Clouds
5:00 AM 30.2 °F 23.4 °F 26.6 °F 86% 29.80 in 6.2 mi West 6.9 mph - N/A Snow Light Snow
5:30 AM 30.2 °F 22.6 °F 26.6 °F 86% 29.80 in 6.2 mi West 8.1 mph - N/A Snow Light Snow
6:00 AM 30.2 °F 23.4 °F 26.6 °F 86% 29.80 in 6.2 mi West 6.9 mph - N/A   Mostly Cloudy
6:30 AM 30.2 °F 25.4 °F 26.6 °F 86% 29.80 in 6.2 mi West 4.6 mph - N/A Snow Light Snow
7:00 AM 29 °F - 28 °F 93% 29.84 in 12 mi West 4.5 mph - - Snow Light Snow
7:00 AM 30.2 °F 23.4 °F 26.6 °F 86% 29.80 in 6.2 mi West 6.9 mph - N/A   Mostly Cloudy
7:30 AM 30.2 °F 26.7 °F 26.6 °F 86% 29.80 in 6.2 mi West 3.5 mph - N/A   Scattered Clouds
8:00 AM 30.2 °F 25.4 °F 26.6 °F 86% 29.83 in 6.2 mi West 4.6 mph - N/A   Mostly Cloudy
8:30 AM 32.0 °F 24.8 °F 26.6 °F 80% 29.83 in 6.2 mi West 8.1 mph - N/A   Mostly Cloudy
9:00 AM 32.0 °F 26.4 °F 26.6 °F 80% 29.83 in 6.2 mi WNW 5.8 mph - N/A   Mostly Cloudy
9:30 AM 32.0 °F 27.5 °F 26.6 °F 80% 29.83 in 6.2 mi NW 4.6 mph - N/A   Mostly Cloudy
10:00 AM 31 °F - 27 °F 80% 29.88 in 12 mi West 4.5 mph - -   Mostly Cloudy
10:00 AM 32.0 °F 28.7 °F 26.6 °F 80% 29.86 in 6.2 mi WNW 3.5 mph - N/A   Mostly Cloudy
10:30 AM 33.8 °F 30.8 °F 26.6 °F 75% 29.83 in 6.2 mi WNW 3.5 mph - N/A   Mostly Cloudy
11:00 AM 33.8 °F 27.7 °F 24.8 °F 70% 29.83 in 6.2 mi West 6.9 mph - N/A   Mostly Cloudy
11:30 AM 32.0 °F 24.2 °F 24.8 °F 75% 29.83 in 6.2 mi WNW 9.2 mph - N/A   Scattered Clouds
12:00 PM 35.6 °F 29.2 °F 23.0 °F 60% 29.83 in 6.2 mi West 8.1 mph - N/A   Partly Cloudy
12:30 PM 35.6 °F 28.6 °F 23.0 °F 60% 29.83 in 6.2 mi WNW 9.2 mph - N/A   Mostly Cloudy
1:00 PM 33 °F - 24 °F 60% 29.87 in 19 mi WSW 8.9 mph - -   Mostly Cloudy
1:30 PM 35.6 °F 29.2 °F 23.0 °F 60% 29.86 in 6.2 mi West 8.1 mph - N/A   Scattered Clouds
2:00 PM 35.6 °F 29.9 °F 23.0 °F 60% 29.86 in 6.2 mi WNW 6.9 mph - N/A   Mostly Cloudy
2:30 PM 35.6 °F 27.5 °F 23.0 °F 60% 29.86 in 6.2 mi WNW 11.5 mph - N/A Snow Light Snow Showers
3:00 PM 33.8 °F 27.7 °F 24.8 °F 70% 29.86 in 6.2 mi WNW 6.9 mph - N/A Snow Light Snow Showers
3:30 PM 33.8 °F 27.7 °F 24.8 °F 70% 29.86 in 6.2 mi WNW 6.9 mph - N/A   Mostly Cloudy
4:00 PM 34 °F - 25 °F 58% 29.89 in 19 mi West 6.7 mph - - Snow Light Snow Showers
4:00 PM 35.6 °F 29.9 °F 23.0 °F 60% 29.86 in 6.2 mi WNW 6.9 mph - N/A   Mostly Cloudy
4:30 PM 33.8 °F 26.4 °F 21.2 °F 60% 29.86 in 6.2 mi NW 9.2 mph - N/A   Scattered Clouds
5:00 PM 33.8 °F 28.6 °F 21.2 °F 60% 29.86 in 6.2 mi WNW 5.8 mph - N/A   Partly Cloudy
5:30 PM 32.0 °F 27.5 °F 23.0 °F 69% 29.86 in - WNW 4.6 mph - N/A   Clear
6:00 PM 28.4 °F - 23.0 °F 80% 29.89 in - South 2.3 mph - N/A   Clear
6:30 PM 28.4 °F - 23.0 °F 80% 29.89 in - South 1.2 mph - N/A   Clear
7:00 PM 28 °F - 23 °F 76% 29.92 in 12 mi Calm Calm - -   Partly Cloudy
7:00 PM 28.4 °F - 23.0 °F 80% 29.89 in - Variable 1.2 mph - N/A   Clear
7:30 PM 28.4 °F - 23.0 °F 80% 29.89 in - Calm Calm - N/A   Clear
8:00 PM 26.6 °F - 23.0 °F 86% 29.89 in 6.2 mi Variable 1.2 mph - N/A   Partly Cloudy
8:30 PM 24.8 °F - 23.0 °F 93% 29.89 in - Variable 1.2 mph - N/A   Clear
9:00 PM 26.6 °F - 23.0 °F 86% 29.92 in 6.2 mi Calm Calm - N/A   Scattered Clouds
9:30 PM 24.8 °F - 21.2 °F 86% 29.92 in 6.2 mi WSW 1.2 mph - N/A   Partly Cloudy
10:00 PM 24 °F - 24 °F 97% 29.95 in 9 mi Calm Calm - -   Mostly Cloudy
10:00 PM 24.8 °F - 23.0 °F 93% 29.92 in 6.2 mi Calm Calm - N/A   Mostly Cloudy
10:30 PM 26.6 °F - 23.0 °F 86% 29.92 in 6.2 mi Variable 1.2 mph - N/A   Mostly Cloudy
11:00 PM 26.6 °F - 24.8 °F 93% 29.92 in 6.2 mi South 1.2 mph - N/A   Mostly Cloudy
11:30 PM 26.6 °F - 23.0 °F 86% 29.92 in 5.0 mi West 2.3 mph - N/A   Scattered Clouds